Location: Cieszkowy
(50.3290°N, 20.5336°E)
Time: 23:16:27
(UTC+00:00)

USA 267 - Pass Details

Date: 15 June 2024
Orbit: 1100 x 1107 km, 123.0° (Epoch: 21 May)

Event Time Altitude Azimuth Distance (km) Brightness Sun altitude
Rises 00:59:44 0° 58° (ENE) 3,923 7.5 -10.0°
Reaches altitude 10° 01:02:26 10° 66° (ENE) 2,962 6.5 -9.8°
Maximum altitude 01:08:27 38° 133° (SE) 1,621 4.1 -9.2°
Drops below altitude 10° 01:14:25 10° 200° (SSW) 2,949 4.9 -8.7°
Enters shadow 01:14:40 - 200° (SSW) 3,030 5.0 -8.7°
